Zurück zum Katalog

SPOT 7

AktivWissenschaftSSO
NORAD 40053·PAYLOAD·🇦🇿 Azerbaijan

Gestartet Jun 30, 2014 von Satish Dhawan Space Centre

Loading…

Nächste Überflüge (nächste 24 Stunden)

TLE

AktuellSource: Space-Track

Epoche: Sep 14, 2026, 15:01 UTC

1 40053U 14034A   26257.62620993  .00000272  00000-0  64662-4 0  9992
2 40053  98.0543 317.7755 0001217  76.6439 283.4898 14.61020765650199

Verfolge SPOT 7 in Echtzeit mit AllMySat

Download on the App Store